Date String (YYYY-MM-DD hh:mm:ss) UTC,Instrument flags,absolute air pressure of the measurement (hPa),sample flow rate (lpm),inlet stack bypass flow (lpm),air temperature of the measurement (°C),ambient temperature measured by the external sensor (°C),aerosol sample conditioner tube jacket temperature (°C),OPC LED temperature (°C),internal box temperature (°C),relative humidity of the measurement (%),span deviation,mass concentration of particles derived from Lorenz-Mie calculation of OPC scattering (μg/m³),mass concentration of particles derived from Lorenz-Mie calculation of OPC scattering (μg/m³),mass concentration of particles derived from Lorenz-Mie calculation of OPC scattering (μg/m³)
DateTimeUTC,F1_M11,P_M11,Q1_M11,Q2_M11,T1_M11,T2_M11,T3_M11,T4_M11,T5_M11,U1_M11,ZSPAN_M11,X2_M11,X0_M11,X1_M11
2024-04-18 22:00:00,SystemResetWarning,0833.3,5.00,000.00,020.0,019.3,000.0,028.6,021.8,022.9,0000.0,0003.84,0006.67,0003.66
2024-04-18 22:01:00,SystemResetWarning,0833.2,5.01,000.00,020.0,019.3,000.0,028.6,021.8,023.0,0000.0,0003.83,0006.74,0003.65
2024-04-18 22:02:00,SystemResetWarning,0833.2,5.00,000.00,020.0,019.3,000.0,028.6,021.8,023.1,0000.0,0003.83,0005.46,0003.62
2024-04-18 22:03:00,SystemResetWarning,0833.3,5.00,000.00,020.0,019.3,000.0,028.6,021.8,023.1,0000.0,0003.80,0005.40,0003.59
2024-04-18 22:04:00,SystemResetWarning,0833.3,5.01,000.00,020.0,019.3,000.0,028.6,021.8,023.0,0000.0,0003.78,0005.42,0003.55
2024-04-18 22:05:00,SystemResetWarning,0833.3,5.01,000.00,020.0,019.3,000.0,028.6,021.8,022.9,0000.0,0003.74,0005.34,0003.51
2024-04-18 22:06:00,SystemResetWarning,0833.2,5.01,000.00,020.0,019.3,000.0,028.6,021.8,022.9,0000.0,0003.72,0005.30,0003.48
2024-04-18 22:07:00,SystemResetWarning,0833.3,4.99,000.00,020.0,019.3,000.0,028.6,021.8,022.8,0000.0,0003.75,0005.37,0003.50
2024-04-18 22:08:00,SystemResetWarning,0833.2,4.99,000.00,020.0,019.3,000.0,028.6,021.8,022.8,0000.0,0003.79,0005.38,0003.54
2024-04-18 22:09:00,SystemResetWarning,0833.2,5.00,000.00,020.0,019.3,000.0,028.6,021.8,022.7,0000.0,0003.86,0005.52,0003.61
2024-04-18 22:10:00,SystemResetWarning,0833.2,5.00,000.00,020.0,019.3,000.0,028.6,021.8,022.5,0000.0,0003.89,0005.65,0003.64
2024-04-18 22:11:00,SystemResetWarning,0833.3,5.01,000.00,020.0,019.3,000.0,028.6,021.8,022.5,0000.0,0003.90,0006.73,0003.64
2024-04-18 22:12:00,SystemResetWarning,0833.3,5.01,000.00,020.0,019.3,000.0,028.6,021.7,022.4,0000.0,0003.95,0006.90,0003.66
2024-04-18 22:13:00,SystemResetWarning,0833.3,4.99,000.00,020.0,019.3,000.0,028.6,021.7,022.5,0000.0,0003.97,0006.57,0003.70
2024-04-18 22:14:00,SystemResetWarning,0833.2,4.99,000.00,019.9,019.2,000.0,028.5,021.7,022.3,0000.0,0004.08,0006.84,0003.80
2024-04-18 22:15:00,SystemResetWarning,0833.3,5.00,000.00,019.9,019.2,000.0,028.5,021.7,022.1,0000.0,0004.17,0006.98,0003.89
2024-04-18 22:16:00,SystemResetWarning,0833.2,5.01,000.00,019.9,019.2,000.0,028.5,021.7,022.1,0000.0,0004.21,0007.04,0003.91
2024-04-18 22:17:00,SystemResetWarning,0833.3,5.00,000.00,019.9,019.2,000.0,028.5,021.7,022.0,0000.0,0004.22,0007.06,0003.92
2024-04-18 22:18:00,SystemResetWarning,0833.2,4.99,000.00,019.9,019.2,000.0,028.5,021.7,022.1,0000.0,0004.20,0007.01,0003.91
2024-04-18 22:19:00,SystemResetWarning,0833.3,4.99,000.00,019.9,019.2,000.0,028.5,021.7,022.2,0000.0,0004.15,0006.84,0003.87
2024-04-18 22:20:00,SystemResetWarning,0833.3,4.99,000.00,019.9,019.2,000.0,028.5,021.7,022.3,0000.0,0004.10,0006.68,0003.82
2024-04-18 22:21:00,SystemResetWarning,0833.2,5.00,000.00,019.9,019.2,000.0,028.5,021.7,022.3,0000.0,0004.11,0006.74,0003.81
2024-04-18 22:22:00,SystemResetWarning,0833.3,5.01,000.00,019.9,019.2,000.0,028.5,021.7,022.5,0000.0,0004.15,0005.87,0003.84
2024-04-18 22:23:00,SystemResetWarning,0833.2,5.01,000.00,019.9,019.2,000.0,028.5,021.7,022.5,0000.0,0004.12,0005.61,0003.83
2024-04-18 22:24:00,SystemResetWarning,0833.2,5.01,000.00,019.9,019.2,000.0,028.5,021.7,022.6,0000.0,0004.07,0005.46,0003.80
2024-04-18 22:25:00,SystemResetWarning,0833.2,5.00,000.00,019.9,019.2,000.0,028.5,021.7,022.6,0000.0,0003.98,0005.24,0003.72
2024-04-18 22:26:00,SystemResetWarning,0833.2,5.00,000.00,019.9,019.2,000.0,028.5,021.7,022.6,0000.0,0003.94,0005.24,0003.69
2024-04-18 22:27:00,SystemResetWarning,0833.3,4.99,000.00,019.9,019.2,000.0,028.5,021.7,022.6,0000.0,0003.97,0005.22,0003.74
2024-04-18 22:28:00,SystemResetWarning,0833.4,5.00,000.00,019.9,019.2,000.0,028.5,021.7,022.7,0000.0,0003.99,0005.23,0003.77
2024-04-18 22:29:00,SystemResetWarning,0833.4,4.99,000.00,019.9,019.2,000.0,028.5,021.7,022.7,0000.0,0004.02,0005.27,0003.81
2024-04-18 22:30:00,SystemResetWarning,0833.4,5.00,000.00,019.9,019.2,000.0,028.5,021.7,022.7,0000.0,0004.06,0005.37,0003.84
2024-04-18 22:31:00,SystemResetWarning,0833.3,5.01,000.00,019.9,019.2,000.0,028.5,021.7,022.8,0000.0,0004.07,0005.37,0003.87
2024-04-18 22:32:00,SystemResetWarning,0833.2,5.00,000.00,019.9,019.2,000.0,028.5,021.7,022.7,0000.0,0004.07,0005.28,0003.88
2024-04-18 22:33:00,SystemResetWarning,0833.3,5.00,000.00,019.9,019.3,000.0,028.5,021.7,022.7,0000.0,0004.03,0005.18,0003.87
2024-04-18 22:34:00,SystemResetWarning,0833.3,5.00,000.00,019.9,019.3,000.0,028.5,021.7,022.7,0000.0,0004.05,0005.18,0003.88
2024-04-18 22:35:00,SystemResetWarning,0833.3,5.00,000.00,019.9,019.3,000.0,028.5,021.7,022.7,0000.0,0004.11,0005.35,0003.92
2024-04-18 22:36:00,SystemResetWarning,0833.3,5.00,000.00,019.9,019.3,000.0,028.5,021.8,022.9,0000.0,0004.14,0005.49,0003.92
2024-04-18 22:37:00,SystemResetWarning,0833.2,5.00,000.00,019.9,019.3,000.0,028.5,021.8,022.9,0000.0,0004.07,0005.29,0003.85
2024-04-18 22:38:00,SystemResetWarning,0833.3,5.00,000.00,019.9,019.3,000.0,028.5,021.7,023.1,0000.0,0004.02,0005.22,0003.79
2024-04-18 22:39:00,SystemResetWarning,0833.3,5.00,000.00,019.9,019.3,000.0,028.5,021.8,023.2,0000.0,0004.01,0005.29,0003.76
2024-04-18 22:40:00,SystemResetWarning,0833.2,5.00,000.00,019.9,019.3,000.0,028.5,021.8,023.3,0000.0,0004.01,0005.33,0003.73
2024-04-18 22:41:00,SystemResetWarning,0833.3,5.00,000.00,019.9,019.3,000.0,028.5,021.8,023.1,0000.0,0003.98,0005.30,0003.72
2024-04-18 22:42:00,SystemResetWarning,0833.3,5.00,000.00,019.9,019.3,000.0,028.5,021.8,023.0,0000.0,0003.96,0005.30,0003.68
2024-04-18 22:43:00,SystemResetWarning,0833.3,5.00,000.00,019.9,019.3,000.0,028.5,021.8,022.8,0000.0,0003.96,0005.37,0003.66
2024-04-18 22:44:00,SystemResetWarning,0833.2,5.00,000.00,019.9,019.3,000.0,028.5,021.8,022.6,0000.0,0003.97,0005.45,0003.65
2024-04-18 22:45:00,SystemResetWarning,0833.2,5.00,000.00,019.9,019.3,000.0,028.5,021.7,022.4,0000.0,0003.96,0005.47,0003.64
2024-04-18 22:46:00,SystemResetWarning,0833.3,5.00,000.00,019.9,019.3,000.0,028.5,021.8,022.2,0000.0,0003.93,0005.41,0003.62
2024-04-18 22:47:00,SystemResetWarning,0833.2,5.00,000.00,019.9,019.3,000.0,028.5,021.8,022.1,0000.0,0003.85,0005.12,0003.58
2024-04-18 22:48:00,SystemResetWarning,0833.2,5.01,000.00,019.9,019.3,000.0,028.5,021.7,022.2,0000.0,0003.84,0005.03,0003.57
2024-04-18 22:49:00,SystemResetWarning,0833.2,5.00,000.00,019.9,019.3,000.0,028.5,021.7,022.3,0000.0,0003.86,0005.15,0003.58
2024-04-18 22:50:00,SystemResetWarning,0833.2,4.99,000.00,019.9,019.3,000.0,028.5,021.7,022.2,0000.0,0003.88,0005.19,0003.61
2024-04-18 22:51:00,SystemResetWarning,0833.2,4.99,000.00,019.9,019.3,000.0,028.5,021.7,022.1,0000.0,0003.87,0005.11,0003.61
2024-04-18 22:52:00,SystemResetWarning,0833.3,4.99,000.00,019.9,019.3,000.0,028.5,021.7,022.2,0000.0,0003.88,0005.36,0003.63
2024-04-18 22:53:00,SystemResetWarning,0833.4,5.00,000.00,019.9,019.3,000.0,028.5,021.7,022.1,0000.0,0003.88,0005.64,0003.64
2024-04-18 22:54:00,SystemResetWarning,0833.4,5.01,000.00,019.9,019.3,000.0,028.5,021.8,022.2,0000.0,0003.88,0005.57,0003.64
2024-04-18 22:55:00,SystemResetWarning,0833.4,5.01,000.00,019.9,019.3,000.0,028.5,021.8,022.5,0000.0,0003.91,0006.10,0003.67
2024-04-18 22:56:00,SystemResetWarning,0833.4,5.00,000.00,019.9,019.3,000.0,028.5,021.8,022.5,0000.0,0003.97,0006.46,0003.70
2024-04-18 22:57:00,SystemResetWarning,0833.4,5.00,000.00,019.9,019.3,000.0,028.5,021.8,022.4,0000.0,0004.00,0006.56,0003.73
2024-04-18 22:58:00,SystemResetWarning,0833.5,5.00,000.00,019.9,019.3,000.0,028.5,021.7,022.5,0000.0,0004.08,0006.83,0003.77
2024-04-18 22:59:00,SystemResetWarning,0833.4,4.99,000.00,019.9,019.3,000.0,028.5,021.8,022.6,0000.0,0004.09,0006.86,0003.79
